Home   Weather   Murmansk   Past weeks

Flag for Russia Past Weather in Murmansk, Russia — Yesterday and Last 2 Weeks

36 °F

Passing clouds.

Feels Like: 33 °F
Forecast: 32 / 36 °F
Wind: 3 mph from Southwest

Location: Murmansk Airport

Current Time: Oct 24, 2016 at 4:41:49 AM

Latest Report: Oct 24, 2016 at 4:00 AM

Visibility: N/A

Pressure: 30.77 "Hg

Humidity: 60%

Dew Point: 23 °F

Location of MurmanskLocation

Past Weather in Murmansk — Graph


Murmansk Temperature Yesterday

Maximum temperature yesterday: 37 °F (at 12:00 AM)
Minimum temperature yesterday: 32 °F (at 5:00 AM)
Average temperature yesterday: 35 °F

High & Low Weather Summary for the Past Weeks

High46 °F (Oct 9, 3:00 AM)93% (Oct 9, 6:00 PM)30.83 "Hg (Oct 9, 6:00 PM)
Low28 °F (Oct 17, 6:30 PM)60% (Oct 23, 12:30 PM)30.15 "Hg (Oct 19, 8:00 AM)
Average38 °F84%30.46 "Hg
* Reported Oct 9 3:00 AM — Oct 24 3:00 AM, Murmansk, Weather by CustomWeather, © 2016

Note: Actual official high and low records may vary slightly from our data, if they occured in-between our weather recording intervals... More about our weather records


Murmansk Weather History for the Previous 24 Hours

Scroll right to see more
Time TempWeatherWind HumidityBarometerVisibility
3:00 AM
Mon, Oct 24
36 °FPassing clouds.3 mph60%30.77 "HgN/A
2:30 AM34 °FPassing clouds.6 mph65%30.77 "HgN/A
2:00 AM34 °FPassing clouds.3 mph65%30.77 "HgN/A
1:30 AM34 °FPassing clouds.6 mph65%30.77 "HgN/A
1:00 AM34 °FPassing clouds.6 mph65%30.80 "HgN/A
12:30 AM34 °FPassing clouds.6 mph65%30.80 "HgN/A
12:00 AM34 °FPassing clouds.3 mph65%30.80 "HgN/A
11:30 PM
Sun, Oct 23
34 °FPassing clouds.3 mph70%30.80 "HgN/A
11:00 PM34 °FPassing clouds.3 mph65%30.80 "HgN/A
10:30 PM34 °FPassing clouds.3 mph65%30.80 "HgN/A
10:00 PM34 °FPassing clouds.6 mph70%30.80 "HgN/A
9:00 PM34 °FPassing clouds.3 mph65%30.80 "HgN/A
8:30 PM34 °FPassing clouds.3 mph65%30.80 "HgN/A
8:00 PM34 °FPassing clouds.3 mph65%30.80 "HgN/A
7:30 PM34 °FPassing clouds.3 mph65%30.80 "HgN/A
7:00 PM34 °FPassing clouds.6 mph65%30.80 "HgN/A
6:30 PM34 °FPassing clouds.3 mph65%30.80 "HgN/A
6:00 PM34 °FPassing clouds.6 mph70%30.80 "HgN/A
5:30 PM34 °FPassing clouds.6 mph70%30.80 "HgN/A
5:00 PM34 °FPassing clouds.3 mph65%30.80 "HgN/A
4:30 PM34 °FPartly sunny.6 mph65%30.83 "HgN/A
4:00 PM34 °FPartly sunny.6 mph70%30.83 "HgN/A
3:30 PM34 °FPartly sunny.6 mph65%30.83 "HgN/A
3:00 PM34 °FPartly sunny.6 mph65%30.83 "HgN/A
2:30 PM36 °FPassing clouds.6 mph60%30.83 "HgN/A
2:00 PM36 °FPassing clouds.10 mph60%30.83 "HgN/A
1:30 PM37 °FPassing clouds.8 mph60%30.83 "HgN/A
1:00 PM37 °FPassing clouds.10 mph60%30.83 "HgN/A
12:30 PM37 °FScattered clouds.8 mph60%30.83 "HgN/A
12:00 PM36 °FPassing clouds.6 mph65%30.83 "HgN/A
11:30 AM36 °FSunny.6 mph65%30.83 "Hg10 mi
11:00 AM36 °FPassing clouds.3 mph65%30.83 "HgN/A
10:30 AM34 °FSunny.3 mph75%30.83 "Hg10 mi
10:00 AM34 °FScattered clouds.3 mph75%30.83 "HgN/A
9:30 AM36 °FPartly sunny.3 mph70%30.83 "HgN/A
9:00 AM34 °FPartly sunny.3 mph75%30.83 "HgN/A
8:30 AM34 °FPartly sunny.3 mph75%30.83 "HgN/A
8:00 AM34 °FPassing clouds.3 mph81%30.83 "HgN/A
7:30 AM34 °FPassing clouds.3 mph81%30.83 "HgN/A
7:00 AM34 °FPassing clouds.3 mph87%30.83 "HgN/A
6:30 AM34 °FPassing clouds.3 mph87%30.83 "HgN/A
6:00 AM32 °FPassing clouds.3 mph93%30.83 "HgN/A
5:30 AM32 °FPassing clouds.3 mph87%30.83 "HgN/A
5:00 AM32 °FPassing clouds.3 mph87%30.83 "HgN/A
4:30 AM34 °FPassing clouds.1 mph81%30.83 "HgN/A
4:00 AM36 °FPassing clouds.1 mph81%30.83 "HgN/A
Weather by CustomWeather, © 2016

See weather overviewHow to use our weather pages